Temperature
8 8 8 8 8 8 8 8 8 7 7 7 7 7 7 7 6 6 6 6 6 6 6 6 6 5 5 5 5 5 5 4 4 4 4 4 4 4
8 8 8 8 7 7 7 7 7 7 7 7 6 6 6 6 6 6 6 6 6 5 5 5 5 5 5 5 4 4 4 4 4 4 3 3 3 3
7 7 7 7 7 7 7 7 6 6 6 6 6 6 6 6 6 6 5 5 5 5 5 5 5 5 5 4 4 4 4 3 3 3 3 3 3 3
7 7 7 6 6 7 6 6 6 6 6 6 6 5 5 5 5 5 5 5 5 4 4 4 4 4 4 4 4 3 3 3 3 3 2 2 2 2
6 6 6 6 6 6 6 6 6 5 5 5 5 5 5 5 5 5 4 4 4 4 4 4 4 4 3 3 3 3 3 3 2 2 2 2 2 2
6 6 6 6 6 5 5 5 5 5 5 5 4 4 4 4 4 4 4 4 4 4 3 3 3 3 3 3 3 3 2 2 2 2 2 1 1 1
5 5 5 5 5 5 5 5 5 4 4 4 4 4 4 4 3 3 3 3 3 3 3 3 3 3 3 3 2 2 2 2 1 1 1 1 1 1
5 5 5 5 4 4 4 4 4 4 4 4 4 3 3 3 3 2 2 2 3 3 2 3 2 2 2 2 2 2 2 1 1 1 1 1 0 0
4 4 4 4 4 4 4 4 3 3 3 3 3 3 3 3 2 2 2 2 2 2 2 2 2 2 2 2 2 1 1 1 0 0 0 0 -0 -0
4 4 4 4 3 3 3 3 3 3 3 3 2 2 2 2 2 2 1 1 1 1 1 1 2 1 2 2 1 1 1 0 -0 -0 -0 -0 -1 -1
3 3 3 3 3 3 3 3 3 2 2 2 2 2 1 1 1 1 1 1 1 1 1 0 0 0 1 1 1 0 0 -0 -0 -1 -1 -1 -1 -1
3 3 2 2 2 2 2 2 2 2 2 2 2 1 1 1 1 1 0 0 0 -0 -0 -1 -1 -1 -1 -0 0 0 -0 -1 -1 -1 -1 -1 -2 -2
2 2 2 2 2 2 2 2 2 2 1 1 1 1 1 1 0 0 -0 -0 -1 -1 -1 -1 -2 -2 -2 -2 -1 -1 -1 -1 -1 -1 -2 -2 -2 -3
2 1 1 1 1 1 1 1 1 1 1 1 1 0 0 0 0 -0 -0 -1 -1 -1 -1 -2 -2 -2 -3 -3 -2 -1 -2 -2 -2 -2 -2 -2 -2 -3
1 1 1 1 1 0 0 0 0 0 0 0 0 0 -0 -0 -0 -1 -1 -1 -1 -1 -2 -2 -2 -3 -3 -3 -3 -3 -3 -3 -3 -3 -3 -3 -3 -3
-0 -0 -0 -0 -0 -0 -0 -0 -0 -0 -0 -0 -0 -1 -1 -1 -1 -1 -1 -2 -2 -2 -2 -2 -3 -3 -3 -3 -3 -3 -3 -4 -4 -4 -4 -4 -4 -4
-1 -1 -1 -1 -1 -1 -1 -1 -1 -1 -1 -1 -1 -1 -2 -2 -2 -2 -2 -2 -2 -2 -2 -3 -3 -3 -3 -4 -3 -3 -4 -4 -4 -4 -4 -4 -4 -4
-1 -1 -1 -1 -2 -1 -1 -1 -1 -2 -2 -2 -2 -2 -2 -2 -3 -3 -3 -3 -3 -3 -3 -3 -3 -3 -4 -4 -4 -4 -4 -4 -5 -5 -5 -5 -4 -4
-2 -2 -2 -2 -2 -2 -2 -2 -2 -2 -2 -3 -3 -3 -3 -3 -3 -3 -4 -4 -4 -4 -4 -4 -4 -5 -5 -5 -5 -4 -5 -5 -5 -5 -5 -5 -5 -4
-3 -3 -3 -3 -3 -3 -3 -3 -3 -3 -3 -3 -4 -4 -4 -4 -4 -4 -4 -4 -5 -4 -4 -4 -5 -5 -6 -6 -6 -5 -5 -6 -6 -6 -6 -6 -5 -5
-3 -3 -4 -4 -4 -4 -4 -4 -4 -4 -4 -4 -4 -4 -5 -5 -5 -5 -5 -5 -5 -5 -5 -5 -5 -6 -6 -7 -7 -6 -5 -6 -6 -6 -6 -6 -6 -6
-4 -4 -4 -4 -4 -4 -4 -5 -5 -5 -5 -5 -5 -5 -5 -5 -5 -6 -6 -6 -6 -6 -6 -6 -6 -6 -7 -7 -7 -7 -6 -6 -6 -6 -6 -7 -7 -7
-5 -5 -5 -5 -5 -5 -5 -5 -5 -5 -5 -5 -6 -6 -6 -6 -6 -6 -6 -6 -6 -6 -6 -6 -6 -7 -7 -7 -7 -7 -7 -7 -7 -6 -6 -6 -7 -7
Wind_Speed
5 5 4 3 3 3 4 4 5 3 4 3 2 2 2 2 1 1 0 1 2 2 3 3 4 4 5 5 5 6 7 7 8 9 9 10 11 12
4 5 4 3 3 3 3 2 3 4 4 3 3 2 2 1 1 1 2 3 3 3 3 4 4 4 5 5 5 6 7 8 8 9 10 11 12 13
4 5 5 4 4 3 3 2 2 2 3 2 1 2 2 2 2 2 3 4 4 4 5 5 5 5 6 6 7 7 7 8 9 10 10 11 12 13
5 5 5 4 4 3 3 4 3 3 3 3 2 2 2 3 2 2 3 4 5 6 6 6 6 7 7 7 7 8 8 8 9 10 11 12 13 13
6 6 5 5 5 4 4 4 3 3 3 3 2 2 1 2 2 2 2 3 5 6 7 7 7 8 8 8 8 8 8 9 9 10 11 12 13 14
5 5 6 6 7 6 5 5 4 4 3 3 2 2 1 2 1 2 2 2 3 5 6 7 8 9 9 9 9 9 9 9 10 10 11 12 13 14
4 4 4 5 6 6 5 5 5 4 3 3 2 2 2 2 2 2 3 3 3 2 2 5 6 6 8 9 9 9 10 10 10 11 11 12 13 14
4 3 3 4 5 6 7 7 7 6 5 4 3 4 4 3 3 2 2 2 3 2 1 4 4 4 6 8 10 11 10 10 10 11 11 12 13 13
4 4 3 3 4 4 5 5 5 6 7 6 6 6 5 5 4 4 3 3 4 3 1 4 3 4 7 10 11 10 10 10 10 10 11 12 12 13
4 4 4 4 4 5 4 3 3 4 5 4 5 5 5 5 5 4 4 2 2 2 2 3 3 3 6 9 10 9 9 9 10 10 11 12 13 13
2 3 4 4 5 5 4 3 3 2 3 4 5 5 5 5 4 2 2 2 3 3 1 1 2 3 4 4 7 7 8 10 10 11 12 12 12 12
1 2 4 4 5 5 4 4 4 3 2 1 1 2 2 3 4 5 4 3 2 2 2 1 2 2 3 3 4 6 8 9 10 11 11 12 12 10
2 2 2 4 4 4 4 4 4 3 2 2 1 1 1 1 2 3 4 4 3 3 2 1 2 2 3 4 3 4 5 6 9 10 11 12 13 11
3 2 2 3 4 4 3 3 3 2 2 2 1 1 2 2 2 2 3 4 5 6 6 4 3 3 3 5 5 3 4 7 7 6 8 12 12 13
2 3 3 3 2 2 2 2 2 2 2 2 2 2 2 2 1 1 1 2 3 5 5 5 4 3 3 5 5 5 5 4 5 4 6 7 8 8
1 2 3 2 2 2 1 1 1 2 2 2 2 1 0 1 1 1 1 1 2 3 3 4 5 4 4 6 6 7 6 4 4 5 6 7 9 9
2 2 1 1 1 1 1 1 1 1 0 0 1 0 1 1 2 1 1 1 2 3 4 2 4 5 6 6 6 7 6 6 6 5 6 7 7 8
3 2 1 1 1 2 1 1 1 1 1 1 1 1 1 2 2 2 2 2 2 3 4 3 2 3 3 4 7 7 5 5 5 6 5 7 8 7
1 1 2 2 2 2 2 2 2 1 1 1 1 1 2 2 2 2 2 2 3 3 4 3 2 2 5 7 4 5 5 6 6 6 6 6 8 9
1 1 1 2 2 2 2 1 1 1 1 1 1 2 2 2 2 3 3 3 3 4 4 3 3 3 5 6 6 6 8 7 6 7 7 7 7 11
1 1 1 1 1 2 2 2 2 2 2 2 2 2 2 2 3 3 4 5 4 4 5 5 5 6 4 3 5 6 6 9 9 7 7 7 7 6
1 1 1 1 1 1 2 2 2 2 2 2 2 2 2 3 3 4 4 4 4 4 5 5 4 3 3 4 7 8 8 8 10 12 12 10 5 5
1 1 1 1 1 1 1 2 2 2 2 2 3 3 3 3 3 4 4 4 4 5 5 5 4 4 4 5 7 7 9 9 7 7 8 11 13 15
Wind_Direction
180 178 179 179 166 162 155 163 167 196 231 225 220 211 199 176 200 162 282 295 314 316 327 333 332 335 329 323 324 324 321 318 316 313 308 309 309 309
175 173 185 180 166 159 161 167 171 180 213 217 215 203 195 211 237 239 268 281 296 300 305 315 317 318 321 319 319 319 318 316 314 313 312 308 306 305
179 180 193 184 175 171 163 163 170 168 199 231 188 184 182 192 255 259 266 271 283 290 290 295 302 308 312 313 312 309 309 312 312 310 309 311 311 308
186 183 193 182 179 179 174 180 189 184 181 201 206 200 210 203 205 232 259 265 273 277 282 283 288 297 300 299 299 301 305 305 306 306 306 309 310 310
186 187 190 179 187 187 186 190 191 182 171 183 216 210 223 200 202 243 265 272 276 277 276 274 282 290 292 293 294 297 299 300 302 302 303 307 309 309
183 187 189 190 194 191 193 193 182 173 164 175 201 211 217 216 202 238 275 274 277 285 273 279 282 285 288 290 291 293 295 298 298 299 301 304 307 308
176 184 190 192 193 191 192 188 180 180 176 184 199 208 216 207 227 230 264 282 277 256 266 281 283 283 287 289 290 292 294 297 298 299 300 303 306 308
185 187 188 188 188 189 191 189 187 186 190 196 208 216 231 228 227 230 247 284 278 250 254 279 267 267 279 288 290 291 291 294 297 299 301 305 308 309
189 187 189 188 186 187 186 186 195 198 200 199 207 223 224 219 211 225 233 244 257 256 269 276 269 270 281 287 288 286 288 293 298 300 304 307 308 309
193 190 187 186 187 179 174 184 204 215 213 210 216 224 219 213 208 217 225 248 283 272 227 261 280 277 292 288 283 280 289 298 302 303 306 306 307 308
191 182 182 182 187 182 177 188 211 236 229 225 233 238 243 237 217 173 185 219 279 276 218 235 278 301 291 278 277 284 295 301 304 306 306 306 308 311
167 180 184 186 189 185 186 190 210 231 223 245 269 256 244 229 219 205 202 221 261 265 224 229 267 318 304 278 276 286 293 296 302 304 306 310 314 313
179 197 204 189 193 195 200 207 216 210 197 205 232 250 243 225 226 225 216 210 231 249 218 198 251 275 268 291 294 280 277 291 298 298 302 309 311 310
197 203 193 183 192 198 203 201 197 183 187 188 209 242 254 265 263 262 255 250 249 247 233 219 228 245 270 286 284 288 293 292 288 288 295 304 303 303
199 185 178 178 186 192 189 187 178 183 182 198 222 251 259 257 275 317 329 324 304 271 248 243 232 240 247 263 275 283 297 290 277 281 295 296 293 296
119 135 132 134 129 124 126 150 160 184 185 207 229 253 275 288 280 281 284 314 316 309 302 278 258 245 265 266 266 275 276 274 285 287 292 290 288 283
126 104 104 116 125 115 111 144 167 158 164 191 186 225 288 307 304 312 283 288 281 287 303 317 309 283 263 260 267 267 271 276 278 290 296 293 284 280
133 148 168 176 192 197 199 217 217 205 208 204 204 224 247 262 280 295 289 279 278 281 286 295 319 323 308 278 246 258 266 273 285 288 286 289 291 289
126 166 190 197 205 208 211 218 232 238 218 200 212 234 244 259 270 280 286 289 284 281 280 280 284 284 297 295 282 238 258 285 291 290 281 279 286 292
127 173 204 208 208 216 220 232 237 224 213 219 225 234 240 253 267 276 276 274 278 284 287 282 266 256 262 275 281 281 269 265 275 284 289 288 284 289
162 198 231 233 226 224 226 225 225 228 229 228 232 234 241 250 262 267 271 277 281 277 279 280 274 283 278 279 283 283 279 271 270 274 283 292 297 297
190 214 246 254 247 232 228 225 232 238 238 243 244 240 241 247 256 262 265 268 272 275 281 287 288 289 265 265 277 284 292 298 296 289 276 265 267 271
221 238 253 262 267 258 240 233 235 243 242 245 250 249 243 251 258 260 265 267 271 276 284 291 295 286 275 271 277 285 289 295 301 304 297 291 281 277
Height
1526 1528 1530 1532 1534 1536 1537 1539 1540 1540 1540 1542 1543 1543 1544 1544 1544 1544 1544 1544 1544 1543 1542 1541 1540 1539 1538 1538 1536 1535 1534 1533 1532 1530 1529 1527 1526 1524
1523 1524 1526 1528 1530 1531 1533 1535 1536 1537 1536 1537 1538 1539 1540 1540 1540 1541 1541 1540 1540 1539 1538 1537 1537 1536 1535 1533 1532 1531 1530 1529 1527 1526 1525 1523 1521 1519
1519 1521 1522 1524 1525 1527 1529 1530 1531 1532 1532 1532 1534 1535 1536 1536 1536 1537 1537 1536 1536 1535 1534 1534 1533 1532 1531 1529 1528 1527 1526 1524 1523 1522 1520 1518 1516 1515
1514 1516 1518 1519 1521 1523 1524 1526 1527 1528 1529 1528 1530 1531 1532 1532 1532 1532 1532 1532 1532 1531 1530 1530 1529 1528 1527 1525 1524 1523 1521 1520 1518 1517 1515 1513 1512 1510
1510 1512 1514 1515 1516 1518 1520 1522 1523 1524 1525 1525 1526 1527 1527 1528 1528 1528 1528 1528 1527 1527 1526 1526 1525 1524 1522 1521 1519 1518 1517 1515 1514 1512 1510 1509 1507 1505
1507 1508 1510 1511 1513 1515 1516 1518 1519 1520 1521 1521 1522 1522 1523 1523 1524 1523 1523 1523 1523 1523 1522 1521 1520 1519 1518 1517 1515 1514 1512 1510 1509 1507 1506 1504 1502 1499
1503 1505 1507 1508 1510 1511 1512 1513 1515 1515 1516 1517 1517 1518 1518 1519 1519 1518 1518 1518 1518 1518 1517 1517 1516 1515 1514 1512 1511 1509 1507 1506 1504 1502 1500 1498 1496 1494
1500 1502 1503 1505 1506 1507 1508 1509 1511 1511 1512 1512 1513 1514 1514 1515 1515 1514 1514 1513 1512 1513 1512 1512 1511 1510 1509 1507 1506 1504 1503 1501 1499 1497 1495 1493 1491 1488
1497 1498 1499 1501 1502 1503 1504 1505 1506 1507 1508 1509 1509 1509 1510 1510 1510 1510 1510 1509 1509 1508 1507 1506 1506 1504 1504 1502 1501 1499 1498 1496 1494 1491 1489 1487 1485 1482
1493 1494 1496 1497 1498 1499 1500 1501 1502 1503 1504 1505 1505 1505 1506 1506 1506 1506 1505 1505 1505 1504 1503 1501 1499 1499 1498 1497 1496 1494 1493 1491 1488 1486 1484 1481 1479 1476
1490 1491 1492 1493 1495 1496 1496 1497 1498 1499 1500 1500 1501 1501 1501 1501 1501 1501 1500 1500 1498 1498 1498 1496 1494 1492 1491 1491 1490 1489 1487 1485 1483 1481 1478 1476 1473 1471
1486 1487 1489 1490 1491 1492 1492 1493 1493 1494 1495 1495 1496 1496 1496 1496 1496 1496 1495 1495 1493 1493 1493 1492 1490 1488 1485 1484 1484 1483 1482 1480 1478 1476 1473 1471 1468 1465
1482 1483 1485 1486 1487 1488 1489 1489 1489 1490 1490 1491 1491 1491 1491 1491 1491 1491 1491 1490 1490 1488 1488 1487 1485 1484 1483 1479 1477 1477 1476 1474 1472 1470 1468 1466 1463 1460
1478 1480 1481 1482 1483 1484 1485 1485 1486 1486 1486 1486 1486 1486 1486 1486 1486 1486 1485 1485 1485 1485 1484 1483 1481 1480 1477 1474 1472 1471 1470 1469 1467 1464 1462 1460 1458 1455
1475 1476 1477 1478 1479 1480 1480 1481 1481 1481 1481 1481 1481 1481 1481 1481 1481 1481 1480 1480 1480 1479 1479 1478 1476 1475 1473 1470 1467 1465 1464 1462 1461 1459 1456 1454 1451 1449
1472 1473 1474 1474 1475 1475 1476 1476 1476 1477 1476 1476 1476 1476 1476 1476 1476 1475 1475 1474 1474 1473 1473 1472 1471 1469 1467 1465 1463 1460 1459 1457 1455 1453 1450 1448 1446 1444
1468 1469 1470 1470 1471 1471 1472 1472 1472 1472 1472 1472 1472 1472 1471 1471 1471 1470 1470 1469 1468 1467 1467 1467 1466 1464 1462 1461 1458 1456 1454 1452 1450 1448 1445 1441 1440 1438
1465 1465 1466 1466 1467 1467 1468 1468 1468 1468 1468 1468 1468 1467 1467 1467 1466 1466 1465 1465 1464 1463 1462 1461 1460 1458 1456 1455 1454 1451 1449 1447 1445 1443 1440 1436 1433 1432
1462 1462 1462 1463 1463 1464 1464 1464 1464 1464 1464 1464 1464 1463 1463 1463 1462 1462 1461 1460 1459 1458 1458 1457 1455 1453 1451 1448 1447 1448 1445 1442 1439 1437 1435 1432 1428 1426
1458 1459 1459 1460 1460 1460 1460 1460 1460 1460 1460 1459 1459 1459 1459 1459 1458 1458 1457 1456 1455 1454 1453 1452 1451 1450 1448 1445 1442 1441 1441 1438 1435 1432 1429 1426 1424 1421
1455 1456 1456 1456 1456 1456 1457 1457 1456 1456 1456 1456 1455 1455 1455 1455 1454 1454 1453 1452 1451 1450 1448 1448 1447 1446 1444 1442 1438 1435 1435 1434 1431 1428 1424 1421 1417 1414
1452 1453 1453 1453 1453 1453 1453 1453 1453 1452 1452 1452 1452 1451 1451 1451 1450 1450 1449 1448 1447 1446 1444 1443 1442 1441 1439 1437 1434 1431 1428 1427 1426 1424 1421 1418 1415 1410
1449 1450 1450 1449 1449 1449 1449 1449 1449 1448 1448 1448 1448 1447 1447 1447 1446 1446 1445 1444 1443 1441 1440 1438 1437 1436 1434 1432 1430 1427 1424 1422 1419 1417 1415 1414 1411 1408